Temperature
17 19 20 20 20 19 19 19 19 20 19 15 17 18 20 20 20 18 17 17 17 16 16 15 16 16 16 15 14 13 12 11 10 9 9 8 8 7 7 7 6 6 5 5
19 20 20 17 16 16 17 18 19 20 16 15 17 17 20 20 19 18 17 17 17 16 16 14 15 16 16 16 15 14 13 12 11 11 10 9 8 8 7 7 7 6 5 5
19 19 16 16 17 17 18 18 19 18 18 16 15 19 22 22 19 17 16 15 15 15 15 14 15 16 17 16 16 15 14 13 12 12 10 9 8 8 7 8 7 7 6 5
18 17 16 16 17 17 18 17 16 15 16 18 16 18 21 22 21 21 20 18 16 15 14 14 15 17 17 17 17 16 15 14 13 12 11 11 10 10 10 9 9 8 7 6
19 17 16 17 17 16 17 15 15 15 15 16 16 16 20 22 22 22 21 19 17 16 15 16 17 18 18 18 17 17 16 15 14 14 13 12 11 11 10 8 8 8 7 7
17 15 16 16 15 14 15 15 14 14 15 17 17 17 20 23 21 20 20 19 17 16 16 17 17 18 18 18 18 17 16 16 15 15 14 13 13 12 10 9 8 8 8 7
18 17 15 14 15 15 15 17 19 19 18 19 15 15 19 22 20 19 18 17 16 16 16 17 17 18 18 18 18 18 17 17 16 16 15 15 14 13 12 10 9 8 8 8
18 18 16 15 16 16 16 17 18 18 18 19 16 16 20 21 19 17 16 16 16 16 16 17 17 17 18 18 18 18 18 17 17 16 16 16 15 14 13 12 10 9 8 8
18 18 15 14 14 15 16 16 16 17 17 16 17 17 19 21 20 20 19 18 17 16 16 16 16 17 17 17 17 17 17 17 17 16 16 15 15 14 14 12 10 9 8 7
17 17 16 14 13 13 14 15 15 16 16 17 18 18 19 21 22 20 19 17 16 15 15 15 15 16 16 16 16 16 17 16 16 16 16 15 15 14 13 12 11 10 9 7
16 17 16 15 15 16 14 14 15 16 16 17 17 18 20 20 20 18 17 17 15 14 14 14 14 15 15 16 16 16 16 16 16 15 15 15 14 14 13 12 11 10 8 6
15 16 17 17 14 13 15 15 15 16 17 16 16 18 20 19 18 16 17 16 14 13 13 14 14 14 15 15 15 15 15 15 15 15 14 14 14 13 13 12 11 9 7 5
13 15 16 17 15 13 13 13 14 15 15 15 15 18 20 19 19 18 17 15 14 13 13 13 13 14 14 14 14 14 14 14 14 14 14 14 13 13 12 11 10 8 7 5
13 15 16 17 18 17 15 14 12 13 15 16 16 17 19 19 19 17 15 14 13 12 12 12 12 13 13 13 13 13 13 13 13 13 13 13 12 12 11 10 9 7 6 4
13 14 15 15 16 14 14 14 15 13 14 15 16 17 18 18 17 15 14 13 12 12 12 12 12 12 12 12 12 12 12 12 12 12 12 11 11 11 10 9 8 6 5 4
12 13 13 13 14 13 12 14 14 14 14 14 15 15 16 15 14 14 14 13 12 12 11 11 11 11 10 10 10 10 11 11 10 10 11 10 10 10 9 9 7 6 5 3
12 12 12 14 13 12 13 14 14 14 14 14 15 16 15 14 14 13 13 12 12 11 11 10 10 9 9 9 9 9 9 9 10 10 10 9 9 9 8 7 7 6 4 2
12 11 12 12 11 10 16 15 14 14 14 14 13 14 14 13 12 12 12 11 11 10 10 9 9 8 8 8 8 8 9 9 9 9 9 8 8 8 7 6 6 5 3 1
10 11 11 10 12 13 15 14 13 13 14 14 13 13 12 11 11 12 11 10 9 9 8 8 7 7 7 7 7 7 8 8 8 7 7 7 7 6 6 6 5 3 2 0
7 9 10 9 9 11 16 13 11 12 13 13 12 12 11 11 10 11 10 9 8 8 7 7 6 6 7 6 6 6 7 6 6 6 6 6 5 5 5 4 3 2 1 -0
8 8 8 9 9 12 14 10 11 12 14 12 11 11 10 10 10 9 8 8 7 7 6 6 6 6 6 6 6 5 5 5 4 5 5 5 4 4 3 3 2 1 -0 -2
11 10 9 9 9 11 12 10 12 13 12 11 10 10 9 9 8 7 7 6 6 6 5 5 5 5 5 5 4 4 4 3 3 3 4 3 3 3 2 2 1 -0 -2 -3
10 12 12 11 12 14 10 11 11 10 10 10 9 8 8 7 7 6 5 5 5 5 5 4 4 4 4 4 3 3 3 2 2 2 2 2 2 2 2 1 0 -1 -2 -4
11 9 9 10 12 12 11 10 10 10 9 8 8 7 6 5 5 5 5 4 4 4 4 4 3 3 3 3 2 2 2 1 1 1 1 1 1 1 1 0 -0 -2 -3 -4
10 9 9 10 11 11 10 10 9 8 8 7 6 6 5 4 4 4 4 4 4 3 3 3 2 2 2 1 1 1 1 0 0 0 0 0 0 0 -0 -0 -1 -2 -3 -3
10 10 10 10 11 11 10 9 8 7 6 5 5 4 4 4 4 4 3 3 3 3 3 2 1 1 0 0 1 1 0 -0 -0 -0 -0 -1 -1 -1 -1 -2 -2 -2 -3 -4
Wind_Speed
1 5 8 8 7 9 9 12 17 17 7 7 17 26 30 26 20 23 23 22 22 22 20 17 18 20 20 21 22 22 23 23 20 17 16 16 16 14 15 18 20 21 21 21
5 9 7 3 2 5 8 12 16 13 3 6 17 27 28 21 17 17 18 19 19 19 17 16 16 18 21 22 23 23 24 23 23 19 17 14 14 13 15 17 20 23 23 22
10 4 2 3 4 6 10 11 13 13 11 7 11 15 11 9 7 9 11 13 14 14 15 14 16 18 20 22 24 22 24 24 24 22 15 13 12 11 14 16 16 22 25 25
8 4 4 6 7 7 10 5 8 9 10 8 6 9 14 10 11 8 9 6 7 8 10 11 13 16 19 21 19 21 22 23 23 22 20 22 19 19 19 17 16 19 25 26
6 2 4 6 6 5 5 2 4 6 7 9 5 6 11 9 10 15 15 13 9 6 6 8 11 14 16 16 17 19 20 22 23 24 24 24 23 21 17 17 19 19 20 25
7 2 3 3 0 2 2 3 3 2 3 5 2 4 9 6 10 16 16 15 13 10 8 6 7 9 12 13 15 17 19 22 22 24 25 26 27 24 22 21 19 17 16 17
4 3 2 2 2 2 3 5 5 4 3 3 1 6 10 10 10 12 14 14 14 12 10 9 7 7 9 13 15 17 19 21 22 24 25 27 28 26 26 23 21 19 16 17
5 2 3 3 3 3 2 4 4 5 6 7 3 7 9 10 10 8 7 9 11 14 14 12 11 9 8 10 13 16 19 20 20 23 24 24 25 20 20 23 21 20 18 18
4 4 2 0 1 2 2 3 2 5 6 7 7 7 12 7 3 6 10 13 16 17 16 15 13 10 9 8 11 14 16 18 19 21 22 22 23 23 22 21 21 20 19 17
3 6 1 1 2 1 2 2 3 4 5 7 8 8 7 10 13 14 14 17 19 19 17 16 13 11 9 8 8 10 13 16 16 18 19 17 21 22 22 20 23 22 21 20
4 5 3 3 5 4 5 4 6 5 5 6 8 8 6 11 13 13 14 18 19 18 16 15 13 12 10 8 7 7 9 12 13 15 16 18 19 19 20 21 22 21 20 21
3 4 6 5 1 1 5 6 6 6 7 7 9 12 9 10 9 10 17 17 16 14 13 13 13 12 11 9 8 7 8 10 12 13 14 17 18 18 20 21 21 20 21 20
5 4 6 4 3 3 5 6 8 7 7 10 11 13 6 9 15 18 16 14 13 12 13 14 14 14 14 13 11 9 8 9 10 10 13 15 16 18 20 20 19 19 20 20
5 6 10 13 13 7 8 9 9 10 11 15 20 26 27 25 22 18 15 13 11 11 13 15 16 16 16 15 13 12 11 10 9 10 12 15 16 17 18 18 18 18 19 20
5 8 12 17 17 13 15 20 18 19 20 19 26 27 27 22 18 14 13 12 12 13 16 18 18 18 18 17 16 14 13 12 10 10 12 14 14 15 15 16 17 17 19 20
5 7 6 13 14 14 18 24 26 24 24 25 28 26 18 11 9 10 13 12 12 16 19 20 20 20 19 18 17 16 15 13 11 12 13 13 13 13 14 15 16 17 18 19
6 6 7 12 7 8 14 17 18 13 14 14 16 12 9 12 13 15 16 14 14 18 20 21 20 19 18 18 16 16 16 15 13 13 13 12 12 13 14 14 15 17 17 18
8 6 5 7 6 11 10 3 7 12 14 14 14 12 12 13 15 16 14 13 18 21 21 20 19 18 18 17 16 15 16 15 14 13 13 12 12 13 13 14 15 16 16 17
10 9 6 5 9 14 11 9 5 6 9 4 4 8 13 15 15 15 11 15 19 20 19 17 17 17 17 16 15 15 16 15 14 14 14 13 12 13 14 14 15 14 15 16
4 8 7 6 7 9 9 2 1 3 6 2 6 14 18 18 18 17 18 20 20 18 17 17 16 17 18 17 15 16 17 17 16 15 15 15 14 14 14 15 14 13 14 15
5 6 9 10 10 11 7 1 2 5 5 7 14 18 18 17 17 20 21 19 17 17 17 17 17 17 17 17 16 17 18 17 17 16 16 16 15 14 14 14 13 13 12 13
7 6 8 7 9 10 3 4 4 9 12 16 19 18 18 20 21 19 18 17 16 17 17 17 16 17 17 16 16 18 18 18 17 17 16 16 15 13 12 13 12 12 12 13
8 8 6 9 11 8 3 7 11 12 17 18 17 18 18 18 17 16 15 15 16 17 17 17 17 18 18 17 17 19 19 18 18 17 17 16 15 13 12 12 12 10 11 11
7 7 9 12 16 17 16 17 17 17 16 16 16 16 13 13 13 14 14 15 16 16 17 17 18 19 19 19 18 18 19 17 17 17 16 15 14 13 12 10 10 10 10 11
11 6 11 19 22 21 17 15 15 15 15 15 12 9 8 9 12 13 14 15 16 17 17 17 17 18 20 20 19 19 18 17 17 17 15 15 13 13 12 10 10 11 12 12
17 21 20 19 19 19 22 18 15 15 12 9 8 7 8 9 11 14 15 16 17 18 18 17 18 19 21 20 20 19 17 16 16 15 14 12 12 11 10 11 10 13 16 18
Wind_Direction
289 249 259 276 266 278 285 282 287 293 297 264 275 282 285 287 273 260 258 255 247 241 236 222 212 209 207 207 208 207 206 207 205 205 208 211 216 217 218 219 217 213 211 209
254 257 275 278 221 239 258 279 289 299 288 270 292 289 287 287 279 269 266 262 255 251 240 224 212 206 206 207 207 208 208 206 206 208 208 213 219 223 222 221 221 217 214 211
254 290 118 193 231 252 264 268 291 301 311 269 304 296 293 305 303 289 276 269 265 256 247 228 214 211 208 210 209 208 208 208 208 207 208 211 218 225 221 221 220 217 215 212
259 269 224 245 256 255 283 289 277 289 305 306 335 306 304 325 330 352 355 334 295 269 253 241 223 216 214 215 212 212 211 211 209 206 209 210 213 220 223 222 221 218 216 214
263 237 232 256 271 235 280 339 277 283 286 290 270 269 292 321 350 3 4 6 358 335 289 259 239 228 223 217 214 214 214 214 211 209 212 216 224 229 230 225 224 221 216 215
264 259 249 266 329 231 261 266 241 222 248 266 251 264 293 333 348 341 344 355 3 359 343 309 271 244 231 219 214 213 214 217 213 213 215 219 224 227 228 226 223 221 218 214
271 214 197 202 238 185 239 291 292 276 264 281 125 259 264 298 328 322 323 334 345 351 349 336 315 271 241 224 217 214 215 219 216 216 218 221 226 228 230 229 226 222 220 216
295 277 183 206 250 299 247 275 303 305 300 305 271 255 272 303 313 315 324 338 353 357 351 339 326 300 270 240 223 218 219 222 218 218 222 225 227 229 233 232 228 226 224 221
267 290 107 90 251 251 234 225 315 283 282 279 270 273 290 281 288 352 1 3 358 350 342 336 329 316 295 267 239 225 225 226 223 223 225 227 227 228 232 233 232 231 228 224
256 279 255 126 162 93 299 207 206 252 286 288 280 272 265 295 322 338 346 347 343 340 337 335 331 325 312 293 268 242 234 234 232 228 228 230 230 231 233 233 233 231 229 225
224 261 254 216 223 225 179 195 224 246 260 278 291 277 259 286 311 327 334 336 336 335 335 335 333 331 325 315 296 267 249 244 241 236 234 235 236 235 234 235 236 234 232 227
204 244 266 254 131 274 234 233 215 250 265 248 278 282 278 283 308 321 325 332 336 338 338 339 340 340 340 334 320 293 269 254 248 243 240 239 239 237 236 236 236 234 232 228
170 220 281 263 209 189 226 226 222 242 271 261 265 274 282 285 303 318 329 334 338 341 346 348 349 346 343 337 329 316 296 277 266 253 247 246 243 240 240 241 238 234 231 228
197 232 244 266 285 284 252 243 222 223 252 266 261 275 289 300 314 325 331 335 338 342 346 347 344 340 337 331 327 320 313 301 282 265 255 253 250 246 246 245 241 235 231 228
201 247 249 260 272 272 267 267 256 243 251 264 273 279 289 307 320 323 327 331 332 338 342 341 337 332 329 327 325 323 316 310 296 278 267 263 261 257 252 247 242 237 232 229
217 248 258 267 268 267 267 266 263 260 256 257 266 277 293 317 328 327 331 333 330 333 334 332 329 327 325 323 322 319 315 313 303 287 278 275 269 262 255 249 244 238 233 229
210 231 260 278 291 287 268 256 251 238 234 241 261 288 335 332 331 330 326 323 325 327 327 324 323 321 319 317 316 313 311 309 301 291 286 284 277 269 262 254 246 240 236 231
226 225 256 279 278 249 258 268 252 253 258 257 268 293 317 322 320 313 311 320 324 324 322 321 320 317 314 313 312 311 309 305 300 296 292 287 281 275 269 259 250 245 238 233
220 218 237 247 263 272 278 279 256 250 277 279 283 321 328 327 313 311 334 331 321 318 316 315 314 312 310 310 312 311 306 304 301 298 298 295 287 279 273 264 257 249 242 236
189 217 230 230 248 270 290 84 93 268 273 99 343 332 330 328 319 320 329 323 318 317 316 316 315 313 311 314 317 310 306 307 306 307 305 301 294 284 277 271 264 254 244 239
165 193 216 233 245 268 281 97 232 259 321 344 326 324 321 316 309 311 317 316 315 314 315 316 316 313 313 316 316 308 307 308 310 309 305 302 297 289 282 277 268 257 247 241
206 208 213 220 230 255 199 171 240 306 321 315 316 316 313 310 311 313 315 315 315 316 317 319 316 313 312 313 311 308 308 311 312 308 304 301 299 293 283 276 269 258 248 242
225 227 241 221 243 281 208 258 294 306 304 309 311 311 310 308 311 314 313 314 316 316 317 317 315 312 311 313 313 307 308 311 311 307 304 303 301 295 285 276 269 258 245 240
244 239 251 263 265 274 279 285 290 297 301 306 308 309 308 307 311 314 314 314 315 314 315 315 313 311 311 313 311 306 308 311 309 306 305 304 302 297 289 276 263 255 246 239
253 247 251 264 275 283 278 284 294 302 303 305 307 306 308 311 311 313 312 311 311 310 310 312 309 306 306 310 310 310 311 311 308 306 305 304 301 296 291 280 266 258 250 243
244 248 255 266 277 287 294 302 305 301 301 303 307 309 311 308 306 308 308 308 308 308 309 308 306 306 309 311 310 311 313 310 307 305 304 303 301 298 291 287 280 259 254 256
Height
1556 1554 1549 1547 1548 1548 1548 1547 1541 1534 1535 1539 1527 1514 1499 1495 1497 1494 1493 1492 1492 1491 1494 1497 1498 1501 1503 1506 1508 1511 1513 1516 1518 1518 1519 1520 1521 1523 1523 1524 1526 1526 1527 1527
1553 1549 1547 1549 1551 1551 1549 1546 1537 1531 1537 1537 1523 1509 1493 1488 1487 1486 1485 1484 1484 1485 1488 1489 1490 1493 1495 1498 1501 1503 1505 1508 1509 1510 1512 1513 1515 1515 1516 1516 1517 1518 1518 1519
1550 1547 1550 1550 1549 1549 1545 1543 1536 1536 1533 1531 1530 1503 1484 1481 1484 1483 1481 1480 1479 1480 1481 1483 1483 1486 1488 1491 1493 1496 1498 1500 1502 1504 1505 1506 1506 1506 1506 1505 1506 1507 1509 1509
1548 1548 1550 1548 1546 1546 1541 1540 1542 1541 1538 1528 1532 1520 1487 1480 1480 1478 1478 1477 1476 1476 1477 1478 1479 1480 1482 1485 1488 1490 1492 1494 1495 1496 1496 1495 1495 1494 1494 1496 1496 1498 1499 1499
1544 1547 1547 1546 1543 1545 1540 1544 1543 1541 1538 1535 1528 1527 1495 1481 1478 1476 1477 1477 1477 1476 1475 1475 1476 1477 1478 1480 1482 1484 1485 1486 1487 1487 1487 1487 1486 1486 1488 1487 1486 1486 1486 1488
1545 1547 1546 1545 1546 1546 1544 1543 1542 1542 1537 1531 1524 1525 1500 1480 1483 1481 1479 1479 1478 1477 1475 1474 1474 1474 1475 1475 1476 1477 1477 1478 1478 1478 1478 1477 1477 1477 1477 1476 1475 1475 1474 1475
1542 1543 1545 1546 1544 1545 1544 1539 1531 1526 1525 1520 1528 1526 1503 1483 1485 1486 1484 1481 1479 1477 1475 1474 1473 1472 1471 1470 1470 1470 1470 1470 1471 1470 1469 1468 1468 1468 1466 1466 1465 1464 1462 1462
1544 1539 1542 1544 1543 1541 1542 1541 1538 1537 1528 1520 1525 1521 1492 1483 1486 1486 1484 1482 1480 1477 1475 1473 1470 1468 1467 1465 1464 1464 1464 1464 1463 1462 1461 1460 1459 1458 1456 1456 1454 1452 1451 1450
1542 1540 1543 1544 1544 1543 1541 1540 1541 1538 1534 1536 1518 1509 1493 1482 1482 1482 1482 1481 1480 1477 1474 1471 1468 1465 1463 1461 1460 1458 1458 1457 1456 1455 1453 1452 1450 1448 1446 1445 1444 1442 1440 1440
1542 1542 1540 1544 1545 1546 1544 1541 1542 1539 1535 1528 1514 1509 1496 1480 1478 1479 1480 1480 1479 1476 1472 1468 1465 1462 1459 1457 1456 1454 1452 1451 1450 1448 1446 1444 1442 1439 1437 1435 1432 1430 1430 1430
1543 1542 1539 1541 1540 1536 1544 1544 1539 1534 1534 1529 1519 1504 1486 1483 1481 1483 1483 1481 1479 1475 1470 1466 1462 1459 1456 1454 1452 1450 1448 1446 1444 1442 1439 1436 1433 1431 1428 1425 1422 1421 1420 1419
1543 1541 1537 1534 1538 1539 1537 1534 1534 1533 1525 1528 1520 1502 1480 1482 1483 1485 1483 1480 1477 1474 1470 1465 1462 1458 1455 1453 1450 1447 1445 1442 1439 1436 1433 1429 1426 1422 1419 1415 1413 1411 1409 1408
1543 1541 1537 1530 1537 1540 1538 1535 1534 1530 1529 1522 1519 1497 1477 1480 1479 1480 1480 1479 1476 1472 1469 1465 1462 1458 1455 1451 1448 1444 1441 1437 1434 1430 1426 1422 1418 1414 1410 1406 1403 1400 1398 1397
1541 1537 1535 1531 1523 1524 1529 1530 1532 1530 1523 1511 1502 1488 1476 1475 1476 1478 1478 1477 1475 1472 1468 1465 1461 1457 1453 1449 1445 1440 1436 1432 1427 1423 1418 1414 1410 1405 1401 1397 1393 1390 1388 1386
1540 1534 1529 1525 1522 1525 1524 1520 1518 1520 1512 1506 1490 1483 1475 1476 1478 1478 1477 1475 1472 1469 1466 1462 1459 1454 1450 1445 1440 1435 1430 1426 1420 1415 1411 1406 1401 1396 1392 1387 1384 1380 1378 1376
1537 1533 1531 1525 1522 1523 1521 1511 1506 1504 1501 1497 1489 1484 1479 1480 1480 1478 1476 1473 1471 1467 1464 1460 1455 1450 1445 1440 1434 1429 1424 1419 1413 1408 1403 1398 1392 1387 1382 1378 1374 1370 1367 1365
1533 1532 1529 1519 1521 1522 1512 1495 1493 1493 1489 1487 1483 1478 1480 1480 1478 1477 1474 1471 1468 1465 1461 1456 1451 1446 1441 1435 1429 1423 1417 1412 1406 1400 1395 1389 1384 1378 1373 1369 1364 1361 1358 1356
1528 1530 1528 1523 1522 1522 1491 1486 1487 1485 1482 1481 1481 1481 1481 1480 1478 1475 1471 1469 1465 1461 1456 1451 1446 1440 1434 1428 1422 1416 1410 1404 1398 1392 1386 1381 1375 1369 1365 1360 1355 1351 1348 1346
1526 1526 1525 1525 1513 1497 1488 1484 1485 1485 1480 1479 1480 1481 1480 1477 1473 1469 1468 1466 1462 1457 1452 1446 1440 1434 1428 1422 1415 1408 1402 1396 1390 1383 1378 1372 1366 1361 1356 1351 1347 1343 1339 1336
1527 1525 1524 1522 1522 1505 1481 1485 1485 1486 1479 1479 1479 1478 1476 1473 1468 1463 1464 1461 1456 1451 1446 1440 1434 1428 1421 1415 1408 1401 1394 1388 1382 1376 1370 1364 1359 1353 1348 1343 1338 1334 1331 1328
1522 1523 1523 1516 1512 1491 1481 1485 1486 1485 1477 1479 1477 1475 1473 1471 1468 1462 1458 1454 1450 1445 1440 1434 1427 1421 1415 1408 1401 1393 1387 1381 1375 1368 1362 1356 1351 1345 1340 1335 1330 1326 1323 1320
1508 1509 1511 1508 1506 1494 1480 1483 1481 1477 1477 1476 1474 1472 1469 1465 1461 1457 1453 1448 1443 1438 1433 1427 1421 1415 1408 1401 1394 1386 1380 1374 1367 1361 1354 1348 1343 1338 1332 1327 1322 1319 1316 1313
1504 1498 1492 1493 1485 1478 1479 1478 1477 1476 1474 1471 1469 1467 1464 1459 1456 1452 1448 1443 1438 1433 1427 1421 1414 1407 1401 1395 1388 1380 1373 1366 1359 1353 1347 1341 1336 1330 1325 1320 1316 1312 1308 1306
1496 1496 1493 1486 1476 1476 1475 1474 1473 1472 1469 1467 1464 1461 1458 1454 1451 1447 1443 1438 1433 1427 1421 1414 1407 1399 1393 1387 1381 1374 1366 1359 1353 1346 1340 1335 1329 1323 1318 1314 1309 1305 1302 1299
1491 1490 1486 1478 1472 1471 1469 1469 1468 1466 1464 1461 1458 1456 1453 1450 1447 1443 1438 1433 1427 1421 1414 1407 1400 1392 1385 1379 1373 1367 1360 1353 1346 1340 1334 1329 1323 1317 1312 1307 1303 1299 1295 1293
1483 1481 1477 1468 1466 1466 1463 1464 1463 1461 1458 1456 1454 1451 1449 1446 1442 1438 1433 1427 1420 1413 1406 1399 1392 1385 1378 1372 1365 1360 1354 1347 1340 1333 1328 1322 1317 1311 1305 1300 1295 1291 1288 1285